Regional Weather Roundup
Issued by NWS

Home | Current Version | Previous Version | Graphics & Text | Print | Product List | Glossary On
Versions: 1 2 3 4 5 6 7 8 9 10 11 12 13 14 15 16 17 18 19 20 21 22 23 24 25 26 27 28 29 30 31 32 33 34 35 36 37 38 39 40 41 42 43 44 45 46 47 48 49 50
000
ASUS45 KPSR 222110
RWRAZ

ARIZONA HOURLY REGIONAL WEATHER ROUNDUP
NATIONAL WEATHER SERVICE PHOENIX AZ
200 PM MST WED MAR 22 2017

NOTE: FAIR INDICATES FEW OR NO CLOUDS BELOW 12,000 FEET WITH NO
SIGNIFICANT WEATHER AND/OR OBSTRUCTIONS TO VISIBILITY.

AZZ001>003-036-222200-
NORTHWEST ARIZONA

CITY           SKY/WX    TMP DP  RH WIND       PRES   REMARKS
BULLHEAD CITY  CLOUDY    79  46  31 S16       29.82F
KINGMAN        CLOUDY    67  28  23 SW21G29   29.92F
$$

AZZ004>008-015-016-018-222200-
NORTH CENTRAL ARIZONA

CITY           SKY/WX    TMP DP  RH WIND       PRES   REMARKS
GRAND CANYON   CLOUDY    59  34  39 SW18G31   30.00F
WILLIAMS       CLOUDY    55  36  47 S18       30.04F
PRESCOTT       CLOUDY    61  39  44 S14G25    30.00F
FLAGSTAFF      CLOUDY    54  35  48 SW17G29   30.05F
PAYSON         CLOUDY    66  28  24 S8G16     30.04F
PAGE           PTSUNNY   72 N/A N/A SW13G20   29.85F
$$

AZZ009>014-017-222200-
NORTHEAST ARIZONA

CITY           SKY/WX    TMP DP  RH WIND       PRES   REMARKS
WINSLOW        CLOUDY    75  21  13 SW21G30   29.96F
SAINT JOHNS    PTSUNNY   73  16  11 CALM      29.97F
WINDOW ROCK    CLOUDY    66  24  20 SW17G24   30.05F
SHOW LOW       PTSUNNY   66  14  13 S26G39    30.05F
$$

AZZ023-222200-
GREATER PHOENIX AREA

CITY           SKY/WX    TMP DP  RH WIND       PRES   REMARKS
PHOENIX        CLOUDY    80  47  31 W13       29.87F
BUCKEYE        CLOUDY    77  48  36 W6        29.89F
GLENDALE       PTSUNNY   79  48  34 S9        29.90F
LUKE AFB       CLOUDY    78  49  36 SW9       29.87F
DEER VALLEY    CLOUDY    77  49  37 W8        29.88F
SCOTTSDALE     CLOUDY    79  45  29 W8        29.90F
MESA-FALCON    PTSUNNY  N/A N/A N/A NW7       29.86
MESA-GATEWAY   PTSUNNY   81  41  24 SW7       29.89F
CHANDLER       SUNNY     81  43  26 W7        29.85F
$$

AZZ027-028-222200-
SOUTHWEST MARICOPA COUNTY AND PINAL COUNTY

CITY           SKY/WX    TMP DP  RH WIND       PRES   REMARKS
CASA GRANDE    NOT AVBL
GILA BEND      PTSUNNY   79  49  35 W5        29.88F
$$

AZZ503-504-507>509-222200-
SOUTHEAST ARIZONA

CITY           SKY/WX    TMP DP  RH WIND       PRES   REMARKS
TUCSON         MOSUNNY   83  29  14 VRB6      29.94F
DAVIS-MONTHAN  PTSUNNY   81  31  16 W9G18     29.93F
RYAN FIELD     SUNNY     84  27  12 W13       29.93F
NOGALES        MOSUNNY   81  21  11 SW14G24   30.00F
SIERRA VISTA   SUNNY     80  10   7 SW16G30   30.02F
DOUGLAS        SUNNY     85  18   8 SW20G26   29.98F
SAFFORD        SUNNY     87  23   9 NW7       29.87F
$$

AZZ020-021-025-026-031-222200-
SOUTHWEST ARIZONA

CITY           SKY/WX    TMP DP  RH WIND       PRES   REMARKS
YUMA           PTSUNNY   80  49  33 W8        29.88F
$$

CAZ031-033-041-043-047-048-061-222200-
SOUTHERN CALIFORNIA

CITY           SKY/WX    TMP DP  RH WIND       PRES   REMARKS
DOWNTOWN L.A.  PTSUNNY   65  51  60 W5        30.00F
L.A. AIRPORT   PTSUNNY   62  53  72 W23       30.01F
SAN DIEGO      CLOUDY    64  52  64 NW12      30.04F
BURBANK        CLOUDY    65  41  41 SW9       29.99F
ONTARIO        CLOUDY    67  48  50 W12G20    29.98F
RIVERSIDE      CLOUDY    66  51  58 SW13      29.99F
PALM SPRINGS   MOSUNNY   77  40  26 NW7       29.90F
EL CENTRO NAS  PTSUNNY   76  45  33 SW26G35   29.90F
IMPERIAL       CLOUDY    74  49  41 W21G28    29.88F
BLYTHE         PTSUNNY   82  45  27 SW17G23   29.86F
NEEDLES        CLOUDY    81  43  26 SW12G20   29.84F
$$

NVZ020-UTZ003-222200-
SOUTHERN NEVADA-UTAH

CITY           SKY/WX    TMP DP  RH WIND       PRES   REMARKS
LAS VEGAS      CLOUDY    71  27  19 SW14G24   29.82F
SALT LAKE CITY CLOUDY    57  46  66 N12       29.82F
$$

NMZ009-TXZ055-222200-
NEW MEXICO-WEST TEXAS

CITY           SKY/WX    TMP DP  RH WIND       PRES   REMARKS
ALBUQUERQUE    PTSUNNY   79  14   8 SW15G21   29.98F
EL PASO        MOSUNNY   89  17   7 VRB7      29.97F
$$


........................KEY........................
SKY/WX - SKY CONDITION/WEATHER
TMP    - TEMPERATURE IN FAHRENHEIT
DP     - DEW POINT IN FAHRENHEIT
RH     - RELATIVE HUMIDITY IN PERCENT
WIND   - DIRECTION AND SPEED IN MILES PER HOUR (MPH)
VRB    - VARIABLE WIND DIRECTION
PRES   - MEAN SEA LEVEL PRESSURE IN INCHES OF MERCURY
         F - FALLING PRESSURE   R - RISING PRESSURE
         S - STEADY PRESSURE
VSB    - VISIBILITY IN MILES
HX     - HEAT INDEX IN FAHRENHEIT
WCI    - WIND CHILL INDEX IN FAHRENHEIT
TC     - TEMPERATURE IN CELSIUS WHICH IS ALSO KNOWN AS
         TEMPERATURE IN CENTIGRADE
AFB    - AIR FORCE BASE
         LUKE AFB IS LUKE AIR FORCE BASE
         DAVIS-MONTHAN IS DAVIS-MONTHAN AIR FORCE BASE
NAS    - NAVAL AIR STATION
         EL CENTRO NAS IS EL CENTRO NAVAL AIR STATION
N/A    - NOT AVAILABLE




USA.gov is the U.S. government's official web portal to all federal, state and local government web resources and services.